www.pogodaiklimat.ru

Погода и климат >> Архив погоды >> Россия >> Ненецкий АО >> Несь


ПОГОДА в Неси

  • Прогноз погоды в Неси
  • Монитор погоды в Неси
  • Климат города

АРХИВ ПОГОДЫ в Неси

Время (UTC), дата Ветер
(напр.,м/с)
 
Видим.   Явления Облачность Т
(С)
Тd
(С)
f
(%)
Тe
(С)
Тes
(С)
Комфортность P
(гПа)
Po
(гПа)
Тmin
(С)
Tmax
(С)
R
(мм)
R24
(мм)
S
(см)
18 10.07 СВ 5 н/о н/о +11.2 -29.4 4 +9 1025.6 1024.0 +17.3
21 10.07 СВ 4 н/о н/о +6.3 -32.9 4 +4 1025.6 1024.0
00 11.07 СВ 3 н/о н/о +5.8 -33.2 4 +4 1025.6 1024.0
03 11.07 СВ 4 н/о н/о +11.0 -29.6 4 +10 1025.6 1024.0 +4.5
06 11.07 СВ 4 н/о н/о +15.8 -26.4 4 +15 +15 1024.5 1023.0 +4.5
09 11.07 СВ 5 н/о н/о +18.3 -24.7 4 +18 +18 1024.0 1022.6
12 11.07 СВ 6 н/о н/о +18.2 -24.7 4 +18 +18 1023.5 1022.0
15 11.07 СВ 4 н/о н/о +17.7 -25.1 4 +18 +18 1023.0 1021.6
18 11.07 СВ 3 н/о н/о +12.0 -29.0 4 +11 +11 1023.0 1021.6 +18.7
21 11.07 СВ 2 н/о н/о +4.9 -34.1 4 +4 +4 1023.8 1022.3
00 12.07 СВ 2 н/о н/о +6.9 -32.6 4 +6 +6 1023.8 1022.3
03 12.07 В 5 н/о н/о +13.5 -28.0 4 +12 +12 1024.3 1022.9 +4.1
06 12.07 В 5 н/о н/о +16.1 -26.1 4 +15 +15 1024.3 1022.8 +4.1
09 12.07 СВ 6 н/о н/о +16.9 -25.6 4 +16 +16 1024.1 1022.6
12 12.07 СВ 6 н/о н/о +16.8 -25.6 4 +16 +16 1023.2 1021.8
15 12.07 СВ 5 н/о н/о +14.3 -27.4 4 +13 +13 1022.4 1020.9
18 12.07 В 4 н/о н/о +11.0 -29.7 4 +10 +10 1021.6 1020.1 +17.5
21 12.07 В 3 н/о н/о +7.0 -32.6 4 +5 +5 1021.3 1019.8
00 13.07 В 2 н/о н/о +6.4 -33.0 4 +5 +5 1020.8 1019.3
03 13.07 В 2 н/о н/о +12.6 -28.6 4 +13 +13 1019.9 1018.4 +5.4
06 13.07 В 2 н/о н/о +20.4 -23.2 4 +20 +20 1019.1 1017.7 +5.4
09 13.07 В 3 н/о н/о +23.1 -21.3 4 +20 +20 1018.2 1016.8
12 13.07 СВ 3 н/о н/о +23.4 -21.1 4 +20 +20 1017.5 1016.1
15 13.07 В 5 н/о н/о +20.5 -23.1 4 +19 +19 1017.1 1015.7
18 13.07 В 4 н/о н/о +15.1 -26.9 4 +14 +14 1016.7 1015.2 +23.7
21 13.07 В 3 н/о н/о +7.6 -32.2 4 +6 +6 1016.8 1015.3
00 14.07 В 2 н/о н/о +7.0 -32.5 4 +6 +6 1016.1 1014.6
03 14.07 СВ 3 н/о н/о +12.7 -28.6 4 +12 +12 1015.7 1014.2 +5.9
06 14.07 СВ 4 н/о н/о +20.4 -23.2 4 +19 +19 1015.5 1014.1 +5.9
09 14.07 СВ 3 н/о н/о +24.0 -20.7 4 +21 +21 комфорт 1014.9 1013.5
12 14.07 СВ 2 н/о н/о +25.6 -19.6 4 +22 +22 комфорт 1014.1 1012.7
15 14.07 В 3 н/о н/о +24.8 -20.1 4 +21 +21 комфорт 1013.3 1011.9
18 14.07 В 3 н/о н/о +17.6 -25.1 4 +18 +18 1013.6 1012.1 +25.8
21 14.07 В 3 н/о н/о +11.2 -29.6 4 +10 +10 1013.4 1012.0
00 15.07 В 2 н/о н/о +10.9 -29.8 4 +11 +11 1013.4 1011.9
03 15.07 В 4 н/о н/о +16.4 -26.0 4 +16 +16 1013.6 1012.2 +9.4
06 15.07 В 5 н/о н/о +21.5 -22.4 4 +19 +19 1013.2 1011.8 +9.4
09 15.07 В 6 н/о н/о +24.4 -20.4 4 +21 +21 комфорт 1012.7 1011.3
12 15.07 СВ 6 н/о н/о +24.5 -20.3 4 +21 +21 комфорт 1011.6 1010.2
15 15.07 СВ 4 н/о н/о +20.5 -23.1 4 +19 +19 1011.7 1010.2
18 15.07 В 3 н/о н/о +18.0 -24.8 4 +18 +18 1011.7 1010.3 +25.5
21 15.07 В 1 н/о н/о +11.1 -29.7 4 +12 +12 1011.8 1010.4
00 16.07 В 3 н/о н/о +8.4 -31.6 4 +7 +7 1012.0 1010.5
03 16.07 В 1 н/о н/о +16.5 -25.9 4 +18 +18 1012.4 1011.0 +7.7
06 16.07 СЗ 2 н/о н/о +22.8 -21.5 4 +20 +20 1012.4 1011.0 +7.7
09 16.07 З 3 н/о н/о +22.9 -21.3 4 +20 1013.5 1012.0
12 16.07 СЗ 5 н/о н/о +20.5 -23.1 4 +19 +19 1013.6 1012.2
15 16.07 СЗ 3 н/о н/о +17.3 -25.2 4 +17 1016.3 1014.7
18 16.07 СЗ 4 н/о н/о +13.0 -28.4 4 +12 +12 1016.4 1014.9 +24.6
21 16.07 С 3 н/о н/о +10.9 -29.8 4 +10 +10 1018.1 1016.7
00 17.07 С 4 н/о н/о +10.0 -30.5 4 +8 +8 1020.0 1018.5
03 17.07 С 4 н/о н/о +13.3 -28.1 4 +12 +12 1021.5 1020.0 +9.7
06 17.07 С 2 н/о н/о +16.7 -25.8 4 +17 +17 1022.2 1020.8 +9.7
09 17.07 СЗ 5 н/о н/о +16.8 -25.5 4 +16 1024.3 1022.7
12 17.07 З 5 н/о н/о +16.1 -26.0 4 +15 1024.3 1022.7
15 17.07 СЗ 4 н/о н/о +16.1 -26.0 4 +16 1024.3 1022.7

 

Местоположение метеостанции Несь (Ненецкий АО, Россия): широта 66.60 долгота 44.68 высота над уровнем моря 13 м.

В архиве по умолчанию представлена погода в Неси за последнюю неделю. Архивные данные за месяц целиком и за предыдущие месяцы, начиная с января 2011 года, Вы можете получить, выбрав интересующий диапазон дат из раскрывающегося списка и нажав кнопку "Ввод!".


*Определитесь, кто Вы:
робот инопланетянин человек

Внимание! Время в таблицах - всемирное. Для получения местного времени необходимо прибавить поправку, которая в Неси равна 3 ч.

Смотрите также архив погоды в соседних городах и на ближайших метеорологических станциях:

Погода в Абрамовском маяке (Архангельская область, Россия) (68 км)
Погода в Мезене (Архангельская область, Россия) (84 км)
Погода на Моржовец Острове (Архангельская область, Россия) (98 км)
Погода в Мосеево (Архангельская область, Россия) (115 км)
Погода в Нижней Пеше (Ненецкий АО, Россия) (137 км)
Погода в Шойне (Ненецкий АО, Россия) (144 км)
Погода на Мысе Микулкин (Ненецкий АО, Россия) (158 км)
Погода на Сосновец Острове (Мурманская область, Россия) (178 км)
Погода в Кепино (Архангельская область, Россия) (187 км)
Погода в Лешуконском (Архангельская область, Россия) (196 км)

Пояснения к столбцам:

Ветер - указаны скорость ветра в м/с - средняя за 10 мин, порывы в срок и между сроками (в фигурных скобках) и направление, откуда дует ветер: С - северный, СВ - северо-восточный, В - восточный, ЮВ - юго-восточный, Ю - южный, ЮЗ - юго-западный, З - западный, СЗ - северо-западный.
Видимость - горизонтальная дальность видимости в метрах или километрах. При видимости от 1 до 10 км при отсутствии осадков обычно наблюдается дымка, при ухудшении видимости до 1 км и менее - туман. В сухую погоду видимость может ухудшаться дымом, пылью или мглою.
Явления - указаны атмосферные явления, наблюдавшиеся в срок или в последний час перед сроком; фигурными скобками обозначены явления, наблюдавшиеся между сроками (за 1-3 часа до срока); квадратными скобками обозначены град или гололедные отложения с указанием их диаметра в мм.
Облачность - указаны через наклонную черту общая и нижняя облачность в баллах и высота нижней границы облаков в метрах; квадратными скобками обозначены формы облаков: Ci - перистые, Cs - перисто-слоистые, Cc - перисто-кучевые, Ac - высококучевые, As - высокослоистые, Sc - слоисто-кучевые, Ns - слоисто-дождевые, Cu - кучевые, Cb - кучево-дождевые. Подробнее классификацию облаков см. в Атласе облаков (PDF).
T - Температура воздуха - температура, измеренная на высоте 2 м над землей.
Td - Температура точки росы - температура, при понижении до которой содержащийся в воздухе водяной пар достигнет насыщения.
f - Относительная влажность воздуха - влажноcть воздуха, измеренная на высоте 2 м над землей.
Te - Эффективная температура - температура, которую ощущает одетый по сезону человек в тени. Характеристика душности погоды. При расчете учитывается влияние влажности воздуха и скорости ветра на теплоощущения человека.
Tes - Эффективная температура на солнце - температура, которую ощущает человек, с поправкой на солнечный нагрев. Характеристика знойности погоды. Зависит от высоты солнца над горизонтом, облачности и скорости ветра. Ночью, в пасмурную погоду, а также при ветре 12 м/с и более поправка равна нулю.
P - Атмосферное давление - приведенное к уровню моря атмосферное давление.
Po - Атмосферное давление - измеренное на уровне метеостанции атмосферное давление.
Tmin - Минимальная температура - минимум температуры воздуха на высоте 2 м над землей.
Tmax - Максимальная температура - максимум температуры воздуха на высоте 2 м над землей.
R - Количество осадков - Количество выпавших осадков за период времени, мм. При наведении курсора мыши на число - период времени, за который выпало указанное количество осадков.
R24 - Количество осадков - Количество выпавших осадков за 24 часа, мм.
S - Снежный покров - Высота снежного покрова, см. При наведении курсора мыши на число - состояние снежного покрова и степень покрытия местности в баллах.